Flag for Nicaragua Weather past 2 weeks in Managua, Nicaragua

Now
73 °F

Passing clouds.


Feels Like: 75 °F
Forecast: 74 / 89 °F
Wind: 5 mph from East

Location: Managua A. C. Sandino

Current Time: Feb 1, 2015 at 1:45:26 AM

Latest Report: Feb 1, 2015 at 1:00 AM


Visibility: N/A

Pressure: 29.92 "Hg

Humidity: 74%

Dew point: 64 °F

Location of ManaguaLocation

Historic Weather in Managua — Graph

°F

Managua temperature yesterday

Maximum temperature yesterday: 90 °F (at 3:00 PM)
Minimum temperature yesterday: 72 °F (at 5:00 AM)
Average temperature yesterday: 80 °F

Past Weeks' High & Low Weather Summary

 TemperatureHumidityPressure
High91 °F (Jan 18, 3:00 PM)94% (Jan 24, 6:00 AM)30.01 "Hg (Jan 24, 6:00 AM)
Low68 °F (Jan 28, 6:00 AM)27% (Jan 28, 1:00 PM)29.77 "Hg (Jan 25, 4:00 PM)
Average81 °F60%29.89 "Hg
* Reported Jan 17 1:00 AM — Feb 1 1:00 AM, Managua, Weather by CustomWeather, © 2014

Note: Actual official high and low records may vary slightly from our data, if they occured in-between our weather recording intervals... More about our weather records

Advertising

Managua weather history for previous 24 hours

 ConditionsComfort  
Time TempWeatherWind HumidityBarometerVisibility
1:00 AM
Feb 1
73 °FPassing clouds.5 mph74%29.92 "HgN/A
12:00 AM75 °FPassing clouds.7 mph69%29.92 "HgN/A
11:00 PM
Jan 31
77 °FPassing clouds.9 mph74%29.92 "HgN/A
10:00 PM77 °FPassing clouds.5 mph69%29.92 "HgN/A
9:00 PM79 °FPassing clouds.7 mph65%29.92 "HgN/A
8:00 PM79 °FPassing clouds.9 mph65%29.89 "HgN/A
7:00 PM84 °FPassing clouds.16 mph55%29.83 "HgN/A
6:00 PM84 °FPassing clouds.16 mph55%29.83 "HgN/A
5:00 PM86 °FScattered clouds.16 mph49%29.83 "HgN/A
4:00 PM86 °FPassing clouds.16 mph52%29.80 "HgN/A
3:00 PM90 °FPassing clouds.23 mph43%29.80 "HgN/A
2:00 PM88 °FScattered clouds.23 mph46%29.83 "HgN/A
1:00 PM88 °FScattered clouds.23 mph46%29.89 "HgN/A
12:00 PM86 °FScattered clouds.18 mph49%29.92 "HgN/A
11:00 AM86 °FPassing clouds.23 mph49%29.92 "HgN/A
10:00 AM84 °FPassing clouds.23 mph51%29.95 "HgN/A
9:02 AMN/APassing clouds.28 mphN/AN/AN/A
8:00 AM79 °FPassing clouds.12 mph61%29.95 "HgN/A
7:00 AM72 °FPassing clouds.9 mph78%29.92 "HgN/A
6:00 AM72 °FClear.No wind73%29.89 "Hg10 mi
5:00 AM72 °FClear.No wind78%29.89 "Hg10 mi
4:00 AM73 °FClear.5 mph69%29.89 "Hg10 mi
3:00 AM73 °FClear.7 mph74%29.89 "Hg10 mi
2:00 AM73 °FClear.7 mph69%29.89 "Hg10 mi
Weather by CustomWeather, © 2014

See weather overviewHow to use our weather pages